^^
NorthLandsweather Station Historical Data
 
Daily Summary for May 23, 2019 Units:  English    Metric   Both
Daily Weekly Monthly Yearly Custom
  Current: High: Low: Average:
Temperature: 51 °F 54.6 °F 50.8 °F 52 °F
Dew Point: 47 °F 47 °F 45.3 °F 46.1 °F
Humidity: 86% 86% 72% 80%
Wind Speed: 0mph 4.6mph 0mph 0.3mph
Wind Gust: 0mph 1.5mph - -
WindCalm - - SE
Pressure: 29.75 in 29.75 in 29.74 in -
Precipitation: 0 in      
Historical Graphs
 
 
Tabular Data for May 23, 2019
Time Temperature Dew Point Pressure Wind Wind Speed Wind Gust Humidity Rainfall Rate (Hourly) solar
00:04 54.6 °F 46.1 °F 29.74 in SE 3.5 mph 0.4 mph 73% 0 in 0.00 W/m2
00:09 54.3 °F 45.8 °F 29.74 in SE 1.2 mph 0.2 mph 73% 0 in 0.00 W/m2
00:14 54.2 °F 45.7 °F 29.74 in SE 1.2 mph 0.1 mph 73% 0 in 0.00 W/m2
00:19 54.2 °F 45.4 °F 29.74 in SSE 4.6 mph 1.5 mph 72% 0 in 0.00 W/m2
00:24 54.3 °F 46.5 °F 29.74 in Calm     75% 0 in 0.00 W/m2
00:29 54.1 °F 45.6 °F 29.74 in South 2.3 mph 0.5 mph 73% 0 in 0.00 W/m2
00:34 54 °F 45.9 °F 29.74 in SE 1.2 mph 0.1 mph 74% 0 in 0.00 W/m2
00:39 53.8 °F 45.7 °F 29.74 in SE 3.5 mph 1.1 mph 74% 0 in 0.00 W/m2
00:44 53.8 °F 46.1 °F 29.74 in SE 2.3 mph   75% 0 in 0.00 W/m2
00:49 53.7 °F 46 °F 29.74 in Calm     75% 0 in 0.00 W/m2
00:54 53.6 °F 45.9 °F 29.75 in Calm     75% 0 in 0.00 W/m2
00:59 53.4 °F 46 °F 29.75 in Calm     76% 0 in 0.00 W/m2
01:04 53.3 °F 45.9 °F 29.75 in Calm     76% 0 in 0.00 W/m2
01:09 53.2 °F 45.8 °F 29.75 in Calm     76% 0 in 0.00 W/m2
01:14 53 °F 46 °F 29.75 in Calm     77% 0 in 0.00 W/m2
01:19 52.9 °F 45.9 °F 29.75 in Calm     77% 0 in 0.00 W/m2
01:24 52.8 °F 45.8 °F 29.75 in Calm     77% 0 in 0.00 W/m2
01:29 52.6 °F 45.6 °F 29.75 in Calm     77% 0 in 0.00 W/m2
01:34 52.5 °F 45.5 °F 29.75 in Calm     77% 0 in 0.00 W/m2
01:39 52.3 °F 45.3 °F 29.75 in Calm     77% 0 in 0.00 W/m2
01:44 51.9 °F 45.6 °F 29.75 in Calm     79% 0 in 0.00 W/m2
01:49 51.6 °F 45.3 °F 29.75 in Calm     79% 0 in 0.00 W/m2
01:54 51.3 °F 45.3 °F 29.75 in Calm     80% 0 in 0.00 W/m2
01:59 51.2 °F 45.6 °F 29.75 in Calm     81% 0 in 0.00 W/m2
02:04 51 °F 45.4 °F 29.75 in Calm     81% 0 in 0.00 W/m2
02:09 51 °F 45.7 °F 29.75 in Calm     82% 0 in 0.00 W/m2
02:14 51.1 °F 45.8 °F 29.75 in Calm     82% 0 in 0.00 W/m2
02:19 51.1 °F 45.8 °F 29.74 in Calm     82% 0 in 0.00 W/m2
02:24 51.1 °F 46.1 °F 29.74 in Calm     83% 0 in 0.00 W/m2
02:29 51 °F 45.7 °F 29.74 in Calm     82% 0 in 0.00 W/m2
02:34 51 °F 46 °F 29.74 in Calm     83% 0 in 0.00 W/m2
02:39 51.1 °F 46.1 °F 29.74 in Calm     83% 0 in 0.00 W/m2
02:44 51.2 °F 45.9 °F 29.74 in Calm     82% 0 in 0.00 W/m2
02:49 51.3 °F 46 °F 29.74 in Calm     82% 0 in 0.00 W/m2
02:54 51.3 °F 46 °F 29.74 in Calm     82% 0 in 0.00 W/m2
02:59 51.2 °F 45.9 °F 29.74 in Calm     82% 0 in 0.00 W/m2
03:04 51.1 °F 45.8 °F 29.74 in Calm     82% 0 in 0.00 W/m2
03:09 51.1 °F 45.8 °F 29.74 in Calm     82% 0 in 0.00 W/m2
03:14 51.1 °F 46.1 °F 29.74 in Calm     83% 0 in 0.00 W/m2
03:19 51.2 °F 45.9 °F 29.74 in Calm     82% 0 in 0.00 W/m2
03:24 51.2 °F 46.2 °F 29.74 in Calm     83% 0 in 0.00 W/m2
03:29 51.4 °F 46.4 °F 29.74 in Calm     83% 0 in 0.00 W/m2
03:34 51.6 °F 46.6 °F 29.74 in Calm     83% 0 in 0.00 W/m2
03:39 51.8 °F 46.8 °F 29.74 in Calm     83% 0 in 0.00 W/m2
03:44 51.7 °F 46.7 °F 29.74 in Calm     83% 0 in 0.00 W/m2
03:49 51.6 °F 46.6 °F 29.74 in Calm     83% 0 in 0.00 W/m2
03:54 51.6 °F 46.6 °F 29.74 in Calm     83% 0 in 0.00 W/m2
03:59 51.5 °F 46.8 °F 29.74 in Calm     84% 0 in 0.00 W/m2
04:04 51.4 °F 46.7 °F 29.74 in Calm     84% 0 in 0.00 W/m2
04:09 51.3 °F 46.6 °F 29.75 in Calm     84% 0 in 0.00 W/m2
04:14 51.2 °F 46.8 °F 29.75 in Calm     85% 0 in 0.00 W/m2
04:19 51.2 °F 46.8 °F 29.75 in Calm     85% 0 in 0.00 W/m2
04:24 51 °F 46.6 °F 29.75 in Calm     85% 0 in 0.00 W/m2
04:29 50.8 °F 46.8 °F 29.75 in Calm     86% 0 in 0.00 W/m2
04:34 50.8 °F 46.8 °F 29.75 in Calm     86% 0 in 0.00 W/m2
04:39 50.8 °F 46.8 °F 29.75 in Calm     86% 0 in 0.00 W/m2
04:44 50.8 °F 46.8 °F 29.75 in Calm     86% 0 in 0.00 W/m2
04:49 50.8 °F 46.8 °F 29.75 in Calm     86% 0 in 0.00 W/m2
04:54 51 °F 47 °F 29.75 in Calm     86% 0 in 0.00 W/m2
Winter, Wisconsin USA
Compliments of Weather Underground - 2 mb